Location: Gleizolles
(44.4833°N, 6.7667°E)
Time: 04:03:19
(UTC+00:00)

N. Korean satellite - Pass Details

Date: 10 December 2021
Orbit: 447 x 491 km, 97.3° (Epoch: 23 January)

Event Time Altitude Azimuth Distance (km) Brightness Sun altitude
Rises 05:05:12 0° 8° (N) 2,460 10.1 -19.4°
Reaches altitude 10° 05:07:16 10° 4° (N) 1,583 9.1 -19.0°
Enters shadow 05:07:50 14° 2° (N) 1,342 8.7 -18.9°
Exits shadow 05:10:26 57° 300° (WNW) 534 6.4 -18.5°
Maximum altitude 05:10:35 58° 286° (WNW) 530 6.3 -18.4°
Drops below altitude 10° 05:13:54 10° 206° (SSW) 1,576 9.0 -17.9°
Sets 05:15:57 0° 202° (SSW) 2,447 10.1 -17.5°
